• In Netherlands
  • List of Countries
  • For 7 days
  • Water Temperature
  • Satellite Maps
  • Weather Map
  • Weather Widgets
  • user-avatar
    Login

    Hourly Weather Orange Walk

    Today, 26 July, Wednesday

    Time Temperature Precipitation Wind Pressure Humidity
    00:00 +26°C° 0 mm 2 mps 760 mmHg 98%
    01:00 +26°C° 0.5 mm 1 mps 759 mmHg 98%
    02:00 +26°C° 0.5 mm 1 mps 759 mmHg 98%
    03:00 +26°C° 0.5 mm 1 mps 759 mmHg 98%
    04:00 +26°C° 0.2 mm 1 mps 759 mmHg 98%
    05:00 +26°C° 0.2 mm 1 mps 759 mmHg 98%
    06:00 +27°C° 0.2 mm 1 mps 759 mmHg 97%
    07:00 +28°C° 0.1 mm 2 mps 759 mmHg 89%
    08:00 +30°C° 0.1 mm 2 mps 759 mmHg 81%
    09:00 +33°C° 0.1 mm 3 mps 759 mmHg 74%
    10:00 +34°C° 0.1 mm 3 mps 759 mmHg 65%
    11:00 +36°C° 0.1 mm 3 mps 759 mmHg 55%
    12:00 +37°C° 0.1 mm 3 mps 759 mmHg 46%
    13:00 +37°C° 0 mm 3 mps 758 mmHg 45%
    14:00 +37°C° 0 mm 3 mps 758 mmHg 44%
    15:00 +37°C° 0 mm 3 mps 757 mmHg 42%
    16:00 +36°C° 0 mm 3 mps 757 mmHg 50%
    17:00 +34°C° 0 mm 2 mps 757 mmHg 57%
    18:00 +31°C° 0 mm 2 mps 757 mmHg 65%
    19:00 +30°C° 0 mm 2 mps 757 mmHg 74%
    20:00 +28°C° 0 mm 2 mps 758 mmHg 83%
    21:00 +27°C° 0 mm 1 mps 758 mmHg 92%
    22:00 +27°C° 0 mm 1 mps 758 mmHg 94%
    23:00 +26°C° 0 mm 1 mps 758 mmHg 96%

    Tomorrow, 27 July, Thursday

    Time Temperature Precipitation Wind Pressure Humidity
    00:00 +26°C° 0 mm 1 mps 758 mmHg 98%
    01:00 +24°C° 0.5 mm 0 mps 758 mmHg 98%
    02:00 +24°C° 0.5 mm 0 mps 758 mmHg 99%
    03:00 +24°C° 0.5 mm 0 mps 757 mmHg 99%
    04:00 +26°C° 0.2 mm 1 mps 757 mmHg 99%
    05:00 +26°C° 0.2 mm 1 mps 757 mmHg 99%
    06:00 +26°C° 0.2 mm 1 mps 757 mmHg 99%
    07:00 +28°C° 0.1 mm 1 mps 758 mmHg 90%
    08:00 +30°C° 0.1 mm 1 mps 758 mmHg 81%
    09:00 +32°C° 0.1 mm 2 mps 758 mmHg 72%
    10:00 +34°C° 0.2 mm 2 mps 758 mmHg 65%
    11:00 +36°C° 0.2 mm 2 mps 758 mmHg 57%
    12:00 +37°C° 0.2 mm 2 mps 758 mmHg 49%
    13:00 +37°C° 0.2 mm 2 mps 757 mmHg 50%
    14:00 +37°C° 0.2 mm 2 mps 757 mmHg 50%
    15:00 +37°C° 0.2 mm 3 mps 756 mmHg 51%
    16:00 +35°C° 0 mm 3 mps 756 mmHg 57%
    17:00 +34°C° 0 mm 2 mps 756 mmHg 64%
    18:00 +32°C° 0 mm 2 mps 756 mmHg 70%
    19:00 +30°C° 0.1 mm 2 mps 756 mmHg 77%
    20:00 +29°C° 0.1 mm 2 mps 757 mmHg 85%
    21:00 +27°C° 0.1 mm 1 mps 757 mmHg 92%
    22:00 +27°C° 0 mm 1 mps 757 mmHg 94%
    23:00 +27°C° 0 mm 1 mps 757 mmHg 96%

    Day after tomorrow, 28 July, Friday

    Time Temperature Precipitation Wind Pressure Humidity
    00:00 +26°C° 0 mm 1 mps 757 mmHg 98%
    01:00 +26°C° 0.2 mm 1 mps 757 mmHg 98%
    02:00 +24°C° 0.2 mm 0 mps 756 mmHg 98%
    03:00 +24°C° 0.2 mm 0 mps 756 mmHg 98%
    04:00 +24°C° 0.1 mm 0 mps 756 mmHg 98%
    05:00 +24°C° 0.1 mm 0 mps 756 mmHg 98%
    06:00 +24°C° 0.1 mm 0 mps 757 mmHg 98%
    07:00 +28°C° 0.1 mm 1 mps 757 mmHg 88%
    08:00 +30°C° 0.1 mm 1 mps 757 mmHg 78%
    09:00 +33°C° 0.1 mm 1 mps 758 mmHg 68%
    10:00 +34°C° 0.1 mm 1 mps 758 mmHg 62%
    11:00 +36°C° 0.1 mm 2 mps 757 mmHg 56%
    12:00 +37°C° 0.1 mm 2 mps 757 mmHg 50%
    13:00 +37°C° 0.2 mm 2 mps 757 mmHg 49%
    14:00 +37°C° 0.2 mm 2 mps 756 mmHg 49%
    15:00 +37°C° 0.2 mm 2 mps 755 mmHg 49%
    16:00 +35°C° 0.1 mm 2 mps 755 mmHg 56%
    17:00 +34°C° 0.1 mm 2 mps 755 mmHg 62%
    18:00 +31°C° 0.1 mm 2 mps 756 mmHg 69%
    19:00 +30°C° 0 mm 2 mps 756 mmHg 75%
    20:00 +29°C° 0 mm 2 mps 757 mmHg 81%
    21:00 +27°C° 0 mm 2 mps 757 mmHg 87%
    22:00 +27°C° 0 mm 2 mps 757 mmHg 90%
    23:00 +26°C° 0 mm 1 mps 757 mmHg 93%

    29 July, Saturday

    Time Temperature Precipitation Wind Pressure Humidity
    00:00 +26°C° 0 mm 1 mps 757 mmHg 96%
    01:00 +26°C° 0 mm 1 mps 757 mmHg 96%
    02:00 +26°C° 0 mm 1 mps 756 mmHg 97%
    03:00 +24°C° 0 mm 0 mps 756 mmHg 97%
    04:00 +24°C° 0 mm 0 mps 756 mmHg 97%
    05:00 +26°C° 0 mm 1 mps 756 mmHg 96%
    06:00 +26°C° 0 mm 1 mps 757 mmHg 96%
    07:00 +28°C° 0 mm 1 mps 757 mmHg 86%
    08:00 +30°C° 0 mm 1 mps 757 mmHg 76%
    09:00 +32°C° 0 mm 2 mps 758 mmHg 67%
    10:00 +34°C° 0.4 mm 2 mps 758 mmHg 67%
    11:00 +34°C° 0.4 mm 2 mps 757 mmHg 67%
    12:00 +35°C° 0.4 mm 2 mps 757 mmHg 67%
    13:00 +34°C° 1.5 mm 2 mps 757 mmHg 71%
    14:00 +32°C° 1.5 mm 2 mps 756 mmHg 75%
    15:00 +32°C° 1.5 mm 2 mps 756 mmHg 79%
    16:00 +31°C° 0.1 mm 2 mps 756 mmHg 81%
    17:00 +30°C° 0.1 mm 2 mps 756 mmHg 83%
    18:00 +30°C° 0.1 mm 1 mps 756 mmHg 85%
    19:00 +29°C° 0.1 mm 1 mps 757 mmHg 88%
    20:00 +28°C° 0.1 mm 2 mps 758 mmHg 91%
    21:00 +27°C° 0.1 mm 2 mps 758 mmHg 95%
    22:00 +27°C° 0 mm 1 mps 758 mmHg 95%
    23:00 +27°C° 0 mm 1 mps 758 mmHg 96%

    30 July, Sunday

    Time Temperature Precipitation Wind Pressure Humidity
    00:00 +27°C° 0 mm 1 mps 758 mmHg 97%
    01:00 +27°C° 0 mm 1 mps 757 mmHg 97%
    02:00 +27°C° 0 mm 1 mps 757 mmHg 98%
    03:00 +27°C° 0 mm 1 mps 756 mmHg 98%
    04:00 +27°C° 0 mm 1 mps 757 mmHg 98%
    05:00 +27°C° 0 mm 1 mps 757 mmHg 97%
    06:00 +27°C° 0 mm 1 mps 757 mmHg 97%
    07:00 +29°C° 0.1 mm 1 mps 758 mmHg 89%
    08:00 +30°C° 0.1 mm 2 mps 758 mmHg 81%
    09:00 +32°C° 0.1 mm 2 mps 759 mmHg 74%
    10:00 +32°C° 0.6 mm 2 mps 758 mmHg 72%
    11:00 +34°C° 0.6 mm 2 mps 758 mmHg 71%
    12:00 +35°C° 0.6 mm 3 mps 758 mmHg 69%
    13:00 +35°C° 0.3 mm 3 mps 757 mmHg 65%
    14:00 +36°C° 0.3 mm 3 mps 757 mmHg 62%
    15:00 +36°C° 0.3 mm 3 mps 756 mmHg 58%
    16:00 +35°C° 0.1 mm 3 mps 756 mmHg 64%
    17:00 +33°C° 0.1 mm 3 mps 757 mmHg 70%
    18:00 +31°C° 0.1 mm 2 mps 757 mmHg 76%
    19:00 +30°C° 0.1 mm 2 mps 757 mmHg 82%
    20:00 +29°C° 0.1 mm 2 mps 758 mmHg 87%
    21:00 +28°C° 0.1 mm 2 mps 758 mmHg 92%
    22:00 +28°C° 0 mm 2 mps 758 mmHg 94%
    23:00 +27°C° 0 mm 2 mps 758 mmHg 95%

    31 July, Monday

    Time Temperature Precipitation Wind Pressure Humidity
    00:00 +27°C° 0 mm 2 mps 758 mmHg 97%
    01:00 +27°C° 0.1 mm 1 mps 757 mmHg 97%
    02:00 +27°C° 0.1 mm 1 mps 757 mmHg 97%
    03:00 +27°C° 0.1 mm 1 mps 757 mmHg 98%
    04:00 +27°C° 0.1 mm 1 mps 757 mmHg 98%
    05:00 +27°C° 0.1 mm 1 mps 757 mmHg 97%
    06:00 +27°C° 0.1 mm 1 mps 758 mmHg 97%
    07:00 +29°C° 0.1 mm 2 mps 758 mmHg 89%
    08:00 +30°C° 0.1 mm 2 mps 758 mmHg 81%
    09:00 +33°C° 0.1 mm 3 mps 758 mmHg 72%
    10:00 +34°C° 0.4 mm 3 mps 758 mmHg 67%
    11:00 +35°C° 0.4 mm 3 mps 758 mmHg 62%
    12:00 +36°C° 0.4 mm 3 mps 758 mmHg 57%
    13:00 +36°C° 0.2 mm 3 mps 757 mmHg 57%
    14:00 +36°C° 0.2 mm 3 mps 757 mmHg 57%
    15:00 +36°C° 0.2 mm 3 mps 756 mmHg 56%
    16:00 +35°C° 0 mm 3 mps 756 mmHg 62%
    17:00 +33°C° 0 mm 3 mps 757 mmHg 68%
    18:00 +31°C° 0 mm 3 mps 757 mmHg 74%
    19:00 +30°C° 0 mm 2 mps 757 mmHg 80%
    20:00 +29°C° 0 mm 2 mps 758 mmHg 85%
    21:00 +28°C° 0 mm 2 mps 758 mmHg 90%
    22:00 +28°C° 0 mm 2 mps 758 mmHg 92%
    23:00 +27°C° 0 mm 2 mps 758 mmHg 94%
    Show more